Ogallala, NE

3:14 PM MST on February 08, 2016 (GMT -0700)
Searle

Weather History for KOGA - July, 2014

Change the Weather History Date:

Monday, July 14, 2014

  Actual Average Record
Temperature  
Mean Temperature 64 °F -  
Max Temperature 77 °F 91 °F 103 °F (1980)
Min Temperature 52 °F 60 °F 44 °F (1990)
Growing Degree Days 14 (Base 50)    
Moisture  
Dew Point 51 °F    
Average Humidity 64    
Maximum Humidity 98    
Minimum Humidity 30    
Precipitation  
Precipitation 0.00 in - - ()
Sea Level Pressure  
Sea Level Pressure 30.22 in    
Wind  
Wind Speed 7 mph (NNE)    
Max Wind Speed 17 mph    
Max Gust Speed 23 mph    
Visibility 10 miles    
Events      
Averages and records for this station are not official NWS values.
T = Trace of Precipitation, MM = Missing Value Source: NWS Daily Summary

Daily Weather History Graph

Daily Weather History Graph

Search for Another Location

Airport or City:

Trip Planner

Search our weather history database for the weather conditions in past years. The results will help you decide how hot, cold, wet, or windy it might be!

Date:

Astronomy

Jul. 14, 2014 Rise Set
Actual Time 5:26 AM MDT 8:18 PM MDT
Civil Twilight 4:54 AM MDT 8:51 PM MDT
Nautical Twilight 4:12 AM MDT 9:32 PM MDT
Astronomical Twilight 3:24 AM MDT 10:20 PM MDT
Moon 9:47 PM MDT (7/14) 8:13 AM MDT (7/14)
Length of Visible Light 15h 57m
Length of Day
14h 51m
Waning Gibbous, 92% of the Moon is Illuminated
Jul 14
Waning Gibbous
Jul 18
Last Quarter
Jul 26
New
Aug 3
First Quarter
Aug 10
Full

Hourly Weather History & Observations

Time (MDT) Temp. Dew Point Humidity Pressure Visibility Wind Dir Wind Speed Gust Speed Precip Events Conditions
12:15 AM 61.2 °F 59.9 °F 96% 30.14 in 10.0 mi West 3.5 mph - N/A   Clear
12:35 AM 59.9 °F 59.0 °F 97% 30.13 in 10.0 mi West 4.6 mph - N/A   Clear
12:55 AM 59.0 °F 58.1 °F 97% 30.13 in 7.0 mi WSW 5.8 mph - N/A   Clear
1:15 AM 58.6 °F 58.1 °F 98% 30.13 in 10.0 mi West 4.6 mph - N/A   Clear
1:35 AM 59.4 °F 58.5 °F 97% 30.13 in 10.0 mi West 4.6 mph - N/A   Clear
1:55 AM 59.4 °F 58.3 °F 96% 30.13 in 10.0 mi West 3.5 mph - N/A   Clear
2:15 AM 59.2 °F 57.9 °F 96% 30.14 in 10.0 mi West 3.5 mph - N/A   Clear
2:35 AM 59.0 °F 57.4 °F 94% 30.14 in 10.0 mi Calm Calm - N/A   Clear
2:55 AM 59.5 °F 57.7 °F 94% 30.14 in 10.0 mi West 3.5 mph - N/A   Clear
3:15 AM 59.4 °F 57.6 °F 94% 30.14 in 10.0 mi West 5.8 mph - N/A   Clear
3:35 AM 58.8 °F 57.0 °F 94% 30.14 in 10.0 mi Calm Calm - N/A   Clear
3:55 AM 58.8 °F 57.2 °F 94% 30.14 in 10.0 mi Calm Calm - N/A   Clear
4:15 AM 59.0 °F 57.4 °F 94% 30.14 in 10.0 mi Calm Calm - N/A   Scattered Clouds
4:35 AM 61.0 °F 58.5 °F 91% 30.14 in 10.0 mi NE 4.6 mph - N/A   Scattered Clouds
4:55 AM 59.9 °F 57.4 °F 91% 30.15 in 10.0 mi ENE 4.6 mph - N/A   Clear
5:15 AM 59.2 °F 56.5 °F 91% 30.15 in 10.0 mi NNE 4.6 mph - N/A   Clear
5:35 AM 59.0 °F 56.1 °F 90% 30.16 in 10.0 mi NNE 6.9 mph - N/A   Clear
5:55 AM 59.9 °F 56.3 °F 88% 30.17 in 10.0 mi NE 10.4 mph - N/A   Scattered Clouds
6:15 AM 59.9 °F 56.5 °F 88% 30.18 in 10.0 mi NNE 12.7 mph - N/A   Clear
6:35 AM 61.0 °F 57.0 °F 87% 30.18 in 10.0 mi NE 6.9 mph - N/A   Clear
6:55 AM 62.6 °F 57.4 °F 83% 30.19 in 10.0 mi ENE 6.9 mph - N/A   Clear
7:15 AM 63.9 °F 57.6 °F 80% 30.20 in 10.0 mi ENE 5.8 mph - N/A   Clear
7:35 AM 64.8 °F 57.9 °F 78% 30.20 in 10.0 mi ENE 5.8 mph - N/A   Clear
7:55 AM 66.4 °F 57.9 °F 74% 30.20 in 10.0 mi ENE 5.8 mph - N/A   Clear
8:15 AM 68.4 °F 58.1 °F 70% 30.21 in 10.0 mi NE 10.4 mph - N/A   Clear
8:35 AM 68.9 °F 57.0 °F 66% 30.22 in 10.0 mi NE 9.2 mph - N/A   Clear
8:55 AM 70.0 °F 56.1 °F 61% 30.22 in 10.0 mi NNE 10.4 mph - N/A   Clear
9:15 AM 71.1 °F 55.9 °F 59% 30.22 in 10.0 mi NE 8.1 mph - N/A   Clear
9:35 AM 71.6 °F 53.6 °F 53% 30.23 in 10.0 mi NNE 9.2 mph - N/A   Clear
9:55 AM 72.7 °F 51.8 °F 48% 30.23 in 10.0 mi NNE 8.1 mph - N/A   Clear
10:15 AM 73.0 °F 49.8 °F 44% 30.24 in 10.0 mi NE 10.4 mph 17.3 mph N/A   Clear
10:35 AM 73.2 °F 49.5 °F 43% 30.25 in 10.0 mi NE 8.1 mph 16.1 mph N/A   Clear
10:55 AM 73.6 °F 50.2 °F 44% 30.25 in 10.0 mi NE 11.5 mph - N/A   Clear
11:15 AM 73.4 °F 50.9 °F 45% 30.25 in 10.0 mi NE 10.4 mph - N/A   Clear
11:35 AM 73.6 °F 52.7 °F 48% 30.25 in 10.0 mi NNE 10.4 mph 16.1 mph N/A   Clear
11:55 AM 74.1 °F 52.9 °F 47% 30.25 in 10.0 mi NE 9.2 mph 18.4 mph N/A   Clear
12:15 PM 74.3 °F 51.6 °F 45% 30.25 in 10.0 mi North 12.7 mph 17.3 mph N/A   Clear
12:35 PM 74.8 °F 51.3 °F 44% 30.25 in 10.0 mi NE 13.8 mph 17.3 mph N/A   Clear
12:55 PM 75.6 °F 49.8 °F 40% 30.25 in 10.0 mi NNE 12.7 mph 19.6 mph N/A   Clear
1:15 PM 75.0 °F 48.7 °F 39% 30.26 in 10.0 mi NE 9.2 mph 19.6 mph N/A   Clear
1:35 PM 74.7 °F 48.2 °F 39% 30.25 in 10.0 mi NNE 13.8 mph 18.4 mph N/A   Clear
1:55 PM 75.4 °F 48.2 °F 38% 30.25 in 10.0 mi NNE 15.0 mph 19.6 mph N/A   Clear
2:15 PM 75.4 °F 48.0 °F 38% 30.25 in 10.0 mi NNE 5.8 mph 17.3 mph N/A   Clear
2:35 PM 76.1 °F 47.8 °F 37% 30.24 in 10.0 mi NNE 8.1 mph 20.7 mph N/A   Scattered Clouds
2:55 PM 77.0 °F 48.7 °F 37% 30.24 in 10.0 mi North 13.8 mph 23.0 mph N/A   Scattered Clouds
3:15 PM 76.8 °F 47.8 °F 36% 30.24 in 10.0 mi North 16.1 mph 20.7 mph N/A   Clear
3:55 PM 76.6 °F 45.5 °F 33% 30.23 in 10.0 mi NNE 13.8 mph 17.3 mph N/A   Clear
4:35 PM 76.3 °F 42.8 °F 30% 30.22 in 10.0 mi North 11.5 mph - N/A   Clear
4:55 PM 77.0 °F 44.4 °F 31% 30.22 in 10.0 mi NNE 15.0 mph - N/A   Clear
5:15 PM 74.1 °F 42.6 °F 32% 30.22 in 10.0 mi NNE 12.7 mph 18.4 mph N/A   Clear
5:35 PM 75.2 °F 41.9 °F 30% 30.22 in 10.0 mi NNE 15.0 mph - N/A   Clear
5:55 PM 74.5 °F 41.9 °F 31% 30.22 in 10.0 mi NNE 17.3 mph 20.7 mph N/A   Clear
6:15 PM 73.9 °F 41.9 °F 32% 30.23 in 10.0 mi NE 13.8 mph - N/A   Clear
6:35 PM 73.4 °F 40.8 °F 31% 30.23 in 10.0 mi NNE 11.5 mph - N/A   Clear
6:55 PM 72.1 °F 42.1 °F 34% 30.24 in 10.0 mi NE 10.4 mph - N/A   Clear
7:15 PM 70.7 °F 42.4 °F 36% 30.25 in 10.0 mi NE 10.4 mph - N/A   Clear
7:35 PM 68.9 °F 43.5 °F 40% 30.25 in 10.0 mi NE 9.2 mph - N/A   Clear
7:55 PM 66.4 °F 44.2 °F 45% 30.25 in 10.0 mi ENE 6.9 mph - N/A   Clear
8:35 PM 61.3 °F 45.5 °F 56% 30.27 in 10.0 mi NE 3.5 mph - N/A   Clear
9:15 PM 59.4 °F 46.2 °F 62% 30.29 in 10.0 mi NE 3.5 mph - N/A   Clear
9:35 PM 56.5 °F 47.3 °F 71% 30.30 in 10.0 mi NE 4.6 mph - N/A   Clear
9:55 PM 54.9 °F 47.3 °F 76% 30.30 in 10.0 mi NE 5.8 mph - N/A   Clear
10:15 PM 55.4 °F 47.3 °F 74% 30.30 in 10.0 mi ENE 6.9 mph - N/A   Clear
10:35 PM 57.0 °F 47.3 °F 70% 30.30 in 10.0 mi ENE 8.1 mph - N/A   Clear
10:55 PM 55.9 °F 46.9 °F 72% 30.31 in 10.0 mi Calm Calm - N/A   Clear
11:15 PM 53.1 °F 46.8 °F 79% 30.31 in 10.0 mi Calm Calm - N/A   Clear
11:35 PM 52.0 °F 46.8 °F 82% 30.31 in 10.0 mi Calm Calm - N/A   Clear
11:55 PM 52.9 °F 46.9 °F 80% 30.31 in 10.0 mi Calm Calm - N/A   Clear